Regional Weather Roundup
Issued by NWS

Home | Current Version | Previous Version | Text Only | Print | Product List | Glossary On
Versions: 1 2 3 4 5 6 7 8 9 10 11 12 13 14 15 16 17 18 19 20 21 22 23 24 25 26 27 28 29 30 31 32 33 34 35 36 37 38 39 40 41 42 43 44 45 46 47 48 49 50
000
ASUS43 KLSX 232307
RWRMO

WEATHER SUMMARY FOR MISSOURI
NATIONAL WEATHER SERVICE SPRINGFIELD MO
600 PM CDT SAT MAY 23 2015

NOTE: "FAIR" INDICATES FEW OR NO CLOUDS BELOW 12,000 FEET WITH NO
       SIGNIFICANT WEATHER AND/OR OBSTRUCTIONS TO VISIBILITY.
       CURRENT SKY AND/OR WEATHER CONDITIONS ARE NOT AVAILABLE FOR
       CHILLICOTHE AND FARMINGTON.

MOZ001>031-035>038-043-044-053-054-240000-
...NORTHERN AND WESTERN MISSOURI...

CITY           SKY/WX    TMP DP  RH WIND       PRES   REMARKS
KANSAS CTY INT CLOUDY    67  60  78 SE13      30.06F
KANSAS C DTWN  CLOUDY    68  59  73 E12       30.05F
LEE`S SUMMIT   CLOUDY    66  59  78 E10       30.07F
ST JOSEPH      CLOUDY    67  59  75 SE13      30.07F
CHILLICOTHE      N/A     70  56  61 SE8       30.12F
KIRKSVILLE     CLOUDY    71  55  56 SE16      30.15F

$$
MOZ066>068-077>081-088>096-101>105-240000-
...SOUTHWEST MISSOURI...

CITY           SKY/WX    TMP DP  RH WIND       PRES   REMARKS
SPRINGFIELD    PTSUNNY   72  60  66 SE13      30.09F
JOPLIN         RAIN      70  65  84 SE10      30.06R

$$
MOZ032>034-039>042-045>050-055>058-069>072-240000-
...CENTRAL MISSOURI...

CITY           SKY/WX    TMP DP  RH WIND       PRES   REMARKS
COLUMBIA       CLOUDY    70  56  61 SE9       30.15F
JEFFERSON CITY CLOUDY    71  54  54 SE10      30.14F
ROLLA          CLOUDY    70  55  59 SE12      30.14F
SEDALIA        CLOUDY    68  55  63 SE13      30.12F
WARRENSBURG    CLOUDY    66  55  68 E12       30.08F
OSAGE BEACH    CLOUDY    70  55  60 E9        30.13F

$$
MOZ051-052-059>065-240000-
...EAST CENTRAL MISSOURI...

CITY           SKY/WX    TMP DP  RH WIND       PRES   REMARKS
ST LOUIS INTL  CLOUDY    77  49  37 S12       30.18F
SPIRIT OF STL  CLOUDY    75  51  43 SE6       30.16F
ST CHARLES     PTSUNNY   77  49  37 SE15      30.16F

$$
MOZ072>076-082>087-097>100-106>115-240000-
...SOUTH CENTRAL AND SOUTHEAST MISSOURI...

CITY           SKY/WX    TMP DP  RH WIND       PRES   REMARKS
CAPE GIRARDEAU MOSUNNY   77  57  50 S8        30.19F
FARMINGTON     MOSUNNY   73  52  46 SE8       30.23F
POPLAR BLUFF   MOSUNNY   77  51  40 SE9       30.17F
WEST PLAINS    MOSUNNY   73  56  54 SE10      30.16F

$$


USA.gov is the U.S. government's official web portal to all federal, state and local government web resources and services.